Location: Kimberly
(42.5380°N, 114.3640°W)
Time: 14:46:54
(UTC-06:00)

Envisat - Visible Passes

Search period start: 21 August 2019 00:00
Search period end: 31 August 2019 00:00
Orbit: 764 x 766 km, 98.1° (Epoch: 21 August)

Date Brightness Start Highest point End Pass type
(mag) Time Alt. Az. Time Alt. Az. Time Alt. Az.
22 Aug 6.1 21:24:09 10° WSW 21:26:15 12° W 21:28:22 10° WNW visible
25 Aug 5.9 21:11:48 10° SW 21:14:53 16° W 21:17:58 10° NW visible
28 Aug 5.7 20:59:48 10° SW 21:03:30 20° W 21:07:14 10° NW visible
30 Aug 6.2 21:27:49 10° WSW 21:29:19 11° W 21:30:50 10° WNW visible
